VE7SDJ-1 Victoria BC CA current weather conditions

sailwx.info

Wind from 315

Air temperature 5.0° C
Dewpoint 3.7° C

Last reported at 2019-Dec-05 13:55 UTC.
Time now 2019-Dec-05 14:26 UTC

Location: N 48°28' W 123°33'.
View on Google Maps.

See reports from other nearby stations

  
Tides and Currents Weather Stations Pressure Air Temp Water Temp Dewpoint Dewpoint Depression Visibility Wind Speed Wind Dir Waves Ship Positions
date/time (UTC)wind fromknots sea level pressurealtimeterstation pressurevisibilityair tempwater tempwave heightnotes
2019-Dec-05 13:55 315 5.0
2019-Dec-05 13:40 315 5.0
2019-Dec-05 13:25 315 5.0
2019-Dec-05 13:10 315 5.0
2019-Dec-05 12:55 315 5.0
2019-Dec-05 12:40 315 5.0
2019-Dec-05 12:25 315 5.0
2019-Dec-05 12:10 315 5.0
2019-Dec-05 11:55 315 5.0
2019-Dec-05 11:40 315 5.0
2019-Dec-05 11:25 315 5.0
2019-Dec-05 11:10 315 5.0
2019-Dec-05 10:55 315 5.0
2019-Dec-05 10:40 315 5.0
2019-Dec-05 10:25 315 5.0
2019-Dec-05 10:10 315 5.0
2019-Dec-05 09:55 315 5.0
2019-Dec-05 09:40 315 5.0
2019-Dec-05 09:25 315 5.0
2019-Dec-05 09:10 315 5.0
2019-Dec-05 08:55 315 5.6
2019-Dec-05 08:40 323 5.6
2019-Dec-05 08:25 323 5.6
2019-Dec-05 08:10 286 5.6
2019-Dec-05 07:55 313 0 gusting 4 5.6
2019-Dec-05 07:40 346 5.0
2019-Dec-05 07:25 333 0 gusting 6 5.0
2019-Dec-05 07:10 321 5.0
2019-Dec-05 06:55 329 0 gusting 8 5.0
2019-Dec-05 06:40 306 5.0
2019-Dec-05 06:25 305 4.4
2019-Dec-05 06:10 015 5.0
2019-Dec-05 05:55 015 5.0
2019-Dec-05 05:40 015 5.0
2019-Dec-05 05:25 015 5.0
2019-Dec-05 05:10 015 5.0
2019-Dec-05 04:55 015 5.0
2019-Dec-05 04:40 015 5.0
2019-Dec-05 04:25 015 5.6
2019-Dec-05 04:10 015 6.1
2019-Dec-05 03:55 015 6.7
2019-Dec-05 03:40 015 6.7
2019-Dec-05 03:25 015 6.7
2019-Dec-05 03:10 015 6.7
2019-Dec-05 02:55 015 6.7
2019-Dec-05 02:40 015 6.7
2019-Dec-05 02:25 015 6.7
2019-Dec-05 02:10 015 6.7
2019-Dec-05 01:55 015 7.2
2019-Dec-05 01:40 015 7.2
2019-Dec-05 01:25 015 7.2
2019-Dec-05 01:10 015 7.2
2019-Dec-05 00:55 015 7.2
2019-Dec-05 00:40 015 7.2
2019-Dec-05 00:25 015 7.2
2019-Dec-05 00:10 015 7.2
2019-Dec-04 23:55 015 7.2
2019-Dec-04 23:40 015 7.2
2019-Dec-04 23:25 015 7.8
2019-Dec-04 23:10 015 7.2
2019-Dec-04 22:55 015 7.8
2019-Dec-04 22:40 013 7.8
2019-Dec-04 22:25 013 7.8
2019-Dec-04 22:10 015 7.8
2019-Dec-04 21:55 015 7.8
2019-Dec-04 21:40 335 7.8
2019-Dec-04 21:25 335 7.8
2019-Dec-04 21:10 335 7.8
2019-Dec-04 20:55 335 0 gusting 3 7.8
2019-Dec-04 20:40 043 7.8
2019-Dec-04 20:25 333 0 gusting 3 8.3
2019-Dec-04 20:10 074 0 gusting 1 8.3
2019-Dec-04 19:55 323 8.3
2019-Dec-04 19:40 322 8.9
2019-Dec-04 19:25 324 8.9
2019-Dec-04 19:10 321 8.9
2019-Dec-04 18:55 321 8.9
2019-Dec-04 18:40 321 8.9
2019-Dec-04 18:25 005 8.9
2019-Dec-04 18:10 005 8.9
2019-Dec-04 17:55 011 8.9
2019-Dec-04 17:40 309 8.9
2019-Dec-04 17:25 309 8.9
2019-Dec-04 17:10 309 8.9
2019-Dec-04 16:55 211 8.9
2019-Dec-04 16:40 211 8.3
2019-Dec-04 16:25 211 8.3
2019-Dec-04 16:10 211 8.3
2019-Dec-04 15:55 211 8.3
2019-Dec-04 15:40 211 8.3
2019-Dec-04 15:25 211 8.9
2019-Dec-04 15:10 211 8.3
2019-Dec-04 14:55 211 8.3
2019-Dec-04 14:40 211 8.3
2019-Dec-04 14:25 211 8.3
2019-Dec-04 14:10 211 8.3
2019-Dec-04 13:55 211 8.3
2019-Dec-04 13:40 211 8.9
2019-Dec-04 13:25 211 8.9
2019-Dec-04 13:10 211 9.4
2019-Dec-04 12:55 209 8.9
2019-Dec-04 12:40 208 0 gusting 6 8.9
2019-Dec-04 12:25 230 2 gusting 6 8.9
2019-Dec-04 12:10 185 7.8
2019-Dec-04 11:55 185 7.8
2019-Dec-04 11:40 185 7.8
2019-Dec-04 11:25 185 7.2
2019-Dec-04 11:10 185 7.2
2019-Dec-04 10:55 185 7.2
2019-Dec-04 10:40 185 7.2
2019-Dec-04 10:25 185 7.2
2019-Dec-04 10:10 185 7.2
2019-Dec-04 09:55 185 7.2
2019-Dec-04 09:40 185 7.8
2019-Dec-04 09:25 185 7.8
2019-Dec-04 09:10 185 7.8
2019-Dec-04 08:55 185 7.8
2019-Dec-04 08:40 185 8.3
2019-Dec-04 08:25 185 8.3
2019-Dec-04 08:10 185 8.3
2019-Dec-04 07:55 185 8.3
2019-Dec-04 07:40 185 7.8
2019-Dec-04 07:25 185 7.8
2019-Dec-04 07:10 185 7.8
2019-Dec-04 06:55 185 7.8
2019-Dec-04 06:40 185 7.8
2019-Dec-04 06:25 185 7.8
2019-Dec-04 06:10 185 7.8
2019-Dec-04 05:55 185 7.8
2019-Dec-04 05:40 185 7.8
2019-Dec-04 05:25 185 7.8
2019-Dec-04 05:10 185 8.3
2019-Dec-04 04:55 185 8.3
2019-Dec-04 04:40 185 8.3
2019-Dec-04 04:25 185 8.3
2019-Dec-04 04:10 185 8.3
2019-Dec-04 03:55 185 8.3
2019-Dec-04 03:40 185 8.3
2019-Dec-04 03:25 185 8.9
2019-Dec-04 03:10 185 8.9
2019-Dec-04 02:55 185 8.9
2019-Dec-04 02:40 185 8.9
2019-Dec-04 02:25 185 8.9
2019-Dec-04 02:10 185 8.9
2019-Dec-04 01:55 171 1 gusting 6 8.9
2019-Dec-04 01:40 182 8.9
2019-Dec-04 01:25 185 0 gusting 5 8.9
2019-Dec-04 01:10 182 1 gusting 6 8.9
2019-Dec-04 00:55 167 8.9
2019-Dec-04 00:40 172 8.9
2019-Dec-04 00:25 184 8.9
2019-Dec-04 00:10 188 0 gusting 5 8.9
2019-Dec-03 23:55 146 8.9
2019-Dec-03 23:40 144 8.9
2019-Dec-03 23:25 132 8.9
2019-Dec-03 23:10 138 3 gusting 6 8.9
2019-Dec-03 22:55 133 2 gusting 6 9.4
2019-Dec-03 22:40 132 1 gusting 6 9.4
2019-Dec-03 22:25 132 9.4
2019-Dec-03 22:10 121 1 gusting 6 9.4
2019-Dec-03 21:55 197 9.4
2019-Dec-03 21:40 197 8.9
2019-Dec-03 21:25 197 8.9
2019-Dec-03 21:10 197 8.9
2019-Dec-03 20:55 172 8.9
2019-Dec-03 20:40 172 8.9
2019-Dec-03 20:25 154 2 gusting 5 8.9
2019-Dec-03 20:10 165 8.3
2019-Dec-03 19:55 165 8.3
2019-Dec-03 19:40 165 0 gusting 3 8.3
2019-Dec-03 19:25 140 7.8
2019-Dec-03 19:10 140 7.8
2019-Dec-03 18:55 130 7.8
2019-Dec-03 18:40 123 7.8
2019-Dec-03 18:25 165 0 gusting 6 7.8
2019-Dec-03 18:10 122 7.2
2019-Dec-03 17:55 130 7.2
2019-Dec-03 17:40 130 7.2
2019-Dec-03 17:25 163 7.2
2019-Dec-03 17:10 126 6.7
2019-Dec-03 16:55 126 6.7
2019-Dec-03 16:40 126 0 gusting 4 6.7
2019-Dec-03 16:25 126 6.1
2019-Dec-03 16:10 126 6.1
2019-Dec-03 15:55 126 6.1
2019-Dec-03 15:40 126 5.6
2019-Dec-03 15:25 126 5.6
2019-Dec-03 15:10 126 5.6
2019-Dec-03 14:55 126 6.1
2019-Dec-03 14:40 126 6.1
2019-Dec-03 14:25 126 6.1
2019-Dec-03 14:10 341 5.6